Terminal Aerodrome Forecast
Issued by NWS

Home | Current Version | Previous Version | Text Only | Print | Product List | Glossary On
Versions: 1 2 3 4 5 6 7 8 9 10 11 12 13 14 15 16 17 18 19 20 21 22
000
FTUS41 KGYX 231234 AAA
TAFRKD
TAF AMD
KRKD 231234Z 2313/2412 03017G30KT 6SM RA BR OVC010 WS020/06050KT
     FM231600 03015G28KT 4SM -RA BR OVC007
     FM232000 02015G28KT P6SM -SHRA OVC012
      AMD LTD TO CLD VIS AND WIND=

USA.gov is the U.S. government's official web portal to all federal, state and local government web resources and services.